Home   Weather   Lisbon   Past weeks

Flag for Portugal Past Weather in Lisbon, Portugal — Yesterday and Last 2 Weeks

Now
41 °F

Sunny.


Feels Like: 33 °F
Forecast: 37 / 46 °F
Wind: 16 mph from Northeast

Location: Lisbon Portela Airport

Current Time: Jan 18, 2017 at 10:27:01 am

Latest Report: Jan 18, 2017 at 9:30 am


Visibility: 10 mi

Pressure: 30.15 "Hg

Humidity: 42%

Dew Point: 19 °F

Location of LisbonLocation

Past Weather in Lisbon — Graph

°F

Lisbon Temperature Yesterday

Maximum temperature yesterday: 63 °F (at 2:00 pm)
Minimum temperature yesterday: 39 °F (at 6:30 am)
Average temperature yesterday: 51 °F

High & Low Weather Summary for the Past Weeks

 TemperatureHumidityPressure
High64 °F (Jan 3, 1:00 pm)100% (Jan 3, 9:30 am)30.48 "Hg (Jan 3, 9:30 am)
Low37 °F (Jan 9, 8:00 am)34% (Jan 18, 6:00 am)30.09 "Hg (Jan 17, 4:00 pm)
Average51 °F80%30.30 "Hg
* Reported Jan 3 9:00 am — Jan 18 9:30 am, Lisbon, Weather by CustomWeather, © 2017

Note: Actual official high and low records may vary slightly from our data, if they occured in-between our weather recording intervals... More about our weather records

Advertising

Lisbon Weather History for the Previous 24 Hours

Scroll right to see more
 ConditionsComfort  
Time TempWeatherWind HumidityBarometerVisibility
9:30 am
Wed, Jan 18
41 °FSunny.16 mph42%30.15 "Hg10 mi
8:30 am39 °FSunny.15 mph42%30.15 "Hg10 mi
8:00 am39 °FSunny.16 mph42%30.12 "Hg10 mi
7:30 am39 °FClear.15 mph42%30.12 "Hg10 mi
7:00 am41 °FClear.17 mph39%30.12 "Hg10 mi
6:30 am41 °FClear.17 mph36%30.12 "Hg10 mi
6:00 am43 °FClear.16 mph34%30.09 "Hg10 mi
5:30 am43 °FClear.16 mph39%30.12 "Hg10 mi
5:00 am43 °FPassing clouds.14 mph49%30.09 "HgN/A
4:30 am45 °FClear.13 mph49%30.09 "Hg10 mi
4:00 am45 °FClear.13 mph61%30.09 "Hg10 mi
3:30 am46 °FClear.13 mph62%30.12 "Hg10 mi
3:00 am48 °FClear.13 mph62%30.12 "Hg10 mi
2:30 am48 °FClear.10 mph62%30.12 "Hg10 mi
2:00 am48 °FClear.10 mph71%30.09 "Hg10 mi
1:30 am50 °FClear.8 mph71%30.09 "Hg10 mi
1:00 am48 °FClear.7 mph76%30.09 "Hg10 mi
12:30 am46 °FClear.2 mph93%30.09 "Hg10 mi
12:00 am52 °FPassing clouds.6 mph72%30.09 "HgN/A
11:30 pm
Tue, Jan 17
52 °FClear.6 mph72%30.09 "Hg10 mi
11:00 pm52 °FPassing clouds.8 mph77%30.09 "HgN/A
10:30 pm54 °FClear.10 mph77%30.09 "Hg10 mi
10:00 pm54 °FClear.10 mph77%30.09 "Hg10 mi
9:30 pm54 °FClear.10 mph72%30.09 "Hg10 mi
9:00 pm54 °FClear.13 mph77%30.09 "Hg10 mi
8:30 pm54 °FClear.13 mph77%30.09 "Hg10 mi
8:00 pm54 °FClear.10 mph77%30.09 "Hg10 mi
7:30 pm54 °FClear.13 mph77%30.09 "Hg10 mi
7:00 pm54 °FClear.12 mph67%30.09 "Hg10 mi
6:30 pm54 °FClear.7 mph67%30.09 "Hg10 mi
6:00 pm55 °FClear.8 mph67%30.09 "Hg10 mi
5:30 pm57 °FPassing clouds.8 mph63%30.09 "HgN/A
5:00 pm59 °FPassing clouds.9 mph59%30.09 "HgN/A
4:30 pm61 °FSunny.10 mph55%30.09 "Hg10 mi
4:00 pm61 °FSunny.12 mph55%30.09 "Hg10 mi
3:30 pm63 °FSunny.8 mph42%30.12 "Hg10 mi
3:00 pm63 °FPassing clouds.5 mph39%30.12 "HgN/A
2:30 pm61 °FPassing clouds.5 mph55%30.12 "HgN/A
2:00 pm63 °FSunny.5 mph42%30.12 "Hg10 mi
1:30 pm61 °FSunny.2 mph59%30.15 "Hg10 mi
1:00 pm57 °FSunny.6 mph67%30.15 "Hg10 mi
12:30 pm61 °FPassing clouds.5 mph59%30.18 "HgN/A
12:00 pm61 °FSunny.2 mph48%30.18 "Hg10 mi
11:30 am57 °FSunny.1 mph63%30.18 "Hg10 mi
11:00 am52 °FPassing clouds.3 mph77%30.21 "HgN/A
10:30 am54 °FSunny.3 mph67%30.21 "Hg10 mi
10:00 am48 °FSunny.2 mph76%30.21 "Hg10 mi
Weather by CustomWeather, © 2017

See weather overviewHow to use our weather pages